Погода в Твери

Погода в Твери : погода сейчас, прогноз погоды и архив. Всё, что Вы хотите узнать о погоде в Твери!

Хотите узнать прогноз погоды в Твери? Тогда Вам сюда: Погода в Твери

Поиск расширенной информации на нашем сайте:

Другие новости

Новости СМИ2

Главная страница сайта

Новости сайта

03.07.2017

Напоминаем, что на нашем специализированном сайте Метеоцентр.Азия вы можете получить высокодетализированные автоматические прогнозы погоды по пунктам России, СНГ и мира в авиационном формате (включающие направление и скорость ветра, видимость, явления погоды, количество и форму облачности, нижнюю и верхнюю границу облачности).


Погода в Твери - сегодня

Время (UTC), дата Ветер
(°,м/с) 
Видим.   Явления Облачность Т
(°С)
Тd
(°С)
f(%) Тe
(°С)
Pmin
(гПа)
dP
(гПа)
Po
(мм)
O2
(г/м3)
Тmin Tmax R s Состояние
почвы
09 15.06.18 130 (ЮВ) 10 км    3/3 600 м 
[Cu hum]
+19.3 +0.1 27 +20  1019.9  752  283           
12 15.06.18 090 (В) 10 км    6/0 средняя 
[Cu hum|Ac trans]
+20.8 +2.4 30 +21  1019.5  -0.3  752  281           
15 15.06.18 120 (ЮВ) 10 км    6/0 средняя 
[Ac trans]
+20.8 +1.9 29 +21  1018.9  -0.5  751  281           
21 15.06.18 070 (В) 10 км    ясно 
+11.9 +4.9 62 +13  1020.3  752  290           
00 16.06.18 тихо ()   10 км    ясно 
+8.4 +4.2 75 +8  1021.3  753  294           
03 16.06.18 тихо ()   10 км    ясно 
+11 +6.1 72 +11  1022  0.8  753  291  +7.9         
09 16.06.18 130 (ЮВ) 10 км    3/0 средняя, верхняя 
[Ac trans|Ci fib]
+21.6 +2.9 29 +22  1021.4  -0.3  753  281           
12 16.06.18 130 (ЮВ) 10 км    3/0 верхняя 
[Ci fib]
+23.1 +2.9 27 +23  1020.5  -0.9  753  279           
15 16.06.18 130 (ЮВ) 10 км    6/0 средняя, верхняя 
[Ac trans|Ci fib]
+23.4 +3.7 28 +23  1019.6  -0.8  752  279           
21 16.06.18 090 (В) 10 км    8/0 средняя 
[Ac trans]
+13.2 +8.1 71 +14  1020.5  0.4  752  288           
00 17.06.18 080 (В) 10 км    8/0 средняя 
[Ac trans]
+13 +8.2 73 +14  1020.9  0.4  753  288           
09 17.06.18 100 (В) 10 км    6/3 600 м средняя, верхняя 
[Cu hum|Ac trans|Ci fib]
+23.5 +5.9 32 +24  1020  -0.6  752  278           
12 17.06.18 120 (ЮВ) 10 км    8/4 1000 м средняя, верхняя 
[Cu hum|Ac trans|Ci fib]
+24.3 +6.5 32 +24  1018.9  -1  752  277           
15 17.06.18 120 (ЮВ) 10 км    8/4 1000 м средняя, верхняя 
[Cu hum|Ac trans|Ci fib]
+24.8 +7.2 32 +25  1018.1  -0.7  751  276           
21 17.06.18 тихо ()   10 км    ясно 
+13.5 +9.8 78 +14  1018.4  0.1  751  286           
00 18.06.18 тихо ()   10 км    ясно 
+10.8 +8.6 86 +11  1018.8  0.2  751  290           
09 18.06.18 170 (Ю) 10 км    5/5 1000 м 
[Cu hum]
+26.4 +7.2 29 +26  1016.2  -0.5  750  274           
12 18.06.18 170 (Ю) 10 км    5/5 1000 м 
[Cu hum]
+26.5 +7.5 30 +27  1015.2  -1  749  274           
15 18.06.18 200 (Ю) 10 км    4/4 1000 м 
[Cu hum]
+27.7 +7.9 29 +28  1013.9  -1.2  748  272           
21 18.06.18 тихо ()   10 км    5/0 средняя 
[Ac trans]
+15.9 +12.4 80 +20  1013.7  -0.1  747  282           
00 19.06.18 тихо ()   10 км    5/0 средняя 
[Ac trans]
+14.9 +11.8 82 +19  1013.5  -0.2  747  283           
09 19.06.18 260 (З) 10 км    6/3 1000 м верхняя 
[Cu hum|Ci fib]
+26.5 +10.4 36 +28  1010.8  -1.4  746  272           
15 19.06.18 260 (З) 10 км    6/4 600 м средняя 
[Cu hum|Ac trans]
+24.9 +7.3 32 +25  1008.1  -1.5  744  273         
21 19.06.18 230 (ЮЗ) 10 км    8/0 средняя 
[Ac trans]
+19.7 +9.9 53 +22  1005.9  -1.6  742  277           
09 20.06.18 250 (З) 3{10}  10 км    6/6 1000 м 
[Cu hum]
+20 +2.8 32 +20  1008.6  744  279           
Время (UTC), дата Ветер
(°,м/с) 
Видим.   Явления Облачность Т
(°С)
Тd
(°С)
f(%) Тe
(°С)
Pmin
(гПа)
dP
(гПа)
Po
(мм)
O2
(г/м3)
Тmin Tmax R s Состояние
почвы

Для получения пояснительной информации подведите курсор к названию столбца.

ПОГОДА в Твери - архив

Всё, что Вы хотите узнать о погоде в Твери - удобно и подробно!

Выберите нужную дату (начиная с 1 января 2015* года) и нажмите кнопку "Найти".
Будут отображены архивные сводки погоды по пункту Тверь, начиная с указанной даты.


Отображать данные в формате CSV (для использования в таблицах Excel)


Внимание! Наш архив погоды предназначен исключительно для личного некоммерческого использования в познавательных целях. Если Вам необходимы официальные справки о состоянии погоды (для производственных, юридических, коммерческих и т.п. целей), обращайтесь в органы Росгидромета.

*Примечание: данная дата относится к архиву по метеостанциям СССР (Россия, СНГ, Балтия).
Архив по метеостанциям Зарубежной Европы и Азии (кроме Китая) хранится 10 дней, по другим регионам земного шара (Китай, Африка, Америка, Австралия, Океания) - 1 день.

Тверь - район местоположения метеостанции


Название, широта, долгота, высота метеостанции:
Тверь (город) 56.8°ш. 35.7°д. 137 м над ур. моря [Российская Федерация]

Дополнительная информация

В oтличие oт бoльшинства пoгoдных сайтoв мы публикуем пoдрoбную метеoинфoрмацию в детальнoм прoфессиoнальнoм фoрмате.

Характеристики температуры и влажнoсти вoздуха измеряются на высoте 2 м в тени вдали oт зданий и деревьев.
Скoрoсть ветра измеряется на высoте 10 м (на урoвне рoста челoвека скoрoсть ветра ниже в 1.5-2 раза). Если метеoстанция нахoдится в гoрoде или в лесу, тo скoрoсть ветра занижена на 2-4 м/с пo сравнению с oткрытым местoм. Скoрoсть ветра над акватoриями крупных рек и oзёр, а также на вершинах хoлмoв на 2-5 м/с выше, чем в oбычных услoвиях.
Атмoсфернoе давление в разных тoчках местнoсти мoжет значительнo oтличаться oт давления на метеoстанции, в зависимoсти oт услoвий рельефа (при пoдъёме на 10 м давление пoнижается примернo на 1 мм рт.ст.).